{"data":{"norad_id":51759,"intl_designator":"2022-016AX","name":"STARLINK-3456","alt_names":[],"object_type":"PAYLOAD","status":"ACTIVE","operator":null,"country":"US","launch_date":"2022-02-21","launch_site_code":"AFETR","launch_vehicle":null,"mission":null,"orbit_class":"UNKNOWN","rcs_meters":null,"size_class":null,"mass_kg":null,"dimensions":null,"purposes":["comms"],"wikipedia_slug":null,"has_3d_model":false,"image_url":null,"decayed_at":null,"tle_current":{"epoch":"2026-05-24T19:59:15.145152Z","epoch_age_seconds":83412,"freshness":"FRESH","line1":"1 51759U 22016AX  26144.83281418  .00000466  00000+0  47354-4 0  9992","line2":"2 51759  53.2134 327.2959 0001397 111.7936 248.3205 15.08843538235203","mean_motion":15.08843538,"eccentricity":0.0001397,"inclination_deg":53.2134,"raan_deg":327.2959,"arg_perigee_deg":111.7936,"mean_anomaly_deg":248.3205,"bstar":4.7354e-5,"rev_number":23520,"period_min":95.43733089176,"perigee_km":538.76614835504,"apogee_km":540.69900111423,"semimajor_km":6917.8695747346,"source":"CELESTRAK","updated_at":"2026-05-25T13:38:16.949205Z"}}}